Location: ??????
(55.4348°N, 39.2112°E)
Time: 23:01:48
(UTC+00:00)

IDEFIX/ARIANE 42P - Pass Details

Date: 14 April 2024
Orbit: 783 x 799 km, 98.5° (Epoch: 23 May)

Event Time Altitude Azimuth Distance (km) Brightness Sun altitude
Rises 00:15:48 0° 13° (NNE) 3,289 6.8 -15.8°
Reaches altitude 10° 00:18:12 10° 8° (N) 2,357 5.8 -15.6°
Maximum altitude 00:23:07 45° 297° (WNW) 1,063 3.1 -15.1°
Enters shadow 00:26:05 22° 236° (SW) 1,652 3.6 -14.8°
